Probability
16 16 14 11 9 8 7 8 9 10 10 10 10 10 10 10 10 9 8 6 3 1 2 3 3 3 3 3 3 3 3 3 3 1 0 0 0 0 0 0 0 1 1
16 16 15 13 11 9 8 7 9 9 9 9 9 9 9 9 9 9 7 6 4 2 2 3 3 3 4 3 3 3 3 3 3 2 1 0 0 0 0 0 0 0 1
16 16 15 13 12 10 8 7 7 8 8 8 8 8 8 8 8 8 7 6 6 4 3 3 3 4 5 5 5 5 5 4 3 2 1 0 0 0 0 0 0 0 0
14 14 14 13 11 10 9 7 6 7 8 8 8 8 8 8 8 7 6 6 6 5 4 3 4 5 6 8 8 8 7 6 4 2 1 0 0 0 0 0 0 0 0
11 11 11 10 9 10 9 7 6 6 7 9 9 9 9 8 7 7 6 6 6 6 5 5 6 6 7 9 10 9 8 7 4 2 0 0 0 1 0 0 0 0 0
11 9 8 8 8 9 9 7 6 6 6 8 10 10 10 9 7 6 6 6 6 7 7 7 7 7 8 9 8 7 6 5 3 2 1 0 0 0 0 0 0 0 0
9 8 7 6 7 8 9 8 7 7 8 8 9 10 9 8 6 5 6 6 6 7 7 7 7 7 8 7 6 3 2 1 1 1 1 0 0 0 0 0 1 1 1
8 7 7 7 7 8 9 9 10 10 10 10 9 8 6 5 3 3 4 6 7 7 6 6 6 7 7 6 3 1 0 0 0 0 0 0 0 0 0 0 1 2 2
8 7 7 7 7 7 8 10 12 13 12 12 11 8 5 3 1 1 4 7 8 7 6 6 6 6 5 4 2 1 0 0 0 0 0 0 0 0 0 0 0 1 1
9 8 8 8 6 6 7 10 12 13 13 13 12 10 7 4 2 1 4 6 7 6 6 6 6 5 3 2 1 1 0 0 0 0 0 0 0 0 0 0 0 1 1
9 9 9 7 4 4 6 9 11 13 13 13 13 11 9 6 3 3 3 4 4 4 4 4 3 3 1 0 0 0 0 0 0 0 0 0 0 0 0 0 0 1 1
9 9 8 5 4 4 6 8 11 13 13 13 13 12 10 7 4 3 3 3 3 3 3 2 1 1 0 0 0 0 0 0 0 0 0 0 0 0 0 0 0 0 1
8 8 7 5 4 4 5 7 9 11 12 13 13 12 10 7 5 3 3 2 2 2 2 1 0 0 0 0 0 0 0 0 0 0 0 0 0 0 0 0 0 0 0
6 6 5 4 3 3 3 4 5 7 9 10 10 9 8 6 5 4 3 2 1 1 1 0 0 0 0 0 0 0 0 0 0 0 0 0 0 0 0 0 0 0 0
3 3 2 2 2 2 1 1 1 2 4 5 5 5 4 4 4 3 2 2 1 0 0 0 0 0 0 0 0 0 0 0 0 0 0 0 0 0 0 0 0 0 0
2 1 0 1 1 2 2 1 0 0 1 1 1 1 3 3 2 1 1 1 1 0 0 0 0 0 0 0 0 0 0 0 0 0 0 0 0 0 0 0 0 0 0
1 0 0 0 1 2 2 1 0 0 0 0 0 1 2 2 1 0 0 0 0 0 0 0 0 0 0 0 0 0 0 0 0 0 0 0 0 0 0 0 0 1 1
0 0 0 0 0 1 1 1 0 0 0 0 0 0 1 1 0 0 0 0 0 0 0 0 0 0 0 0 0 0 0 0 0 0 0 0 1 1 2 1 0 0 0
0 0 0 0 0 0 0 0 0 0 0 0 0 0 0 0 0 0 0 0 0 0 0 0 0 0 0 0 0 0 0 0 0 0 0 1 2 2 2 1 0 0 0
0 0 0 0 0 0 0 0 0 0 0 0 0 0 0 0 0 0 0 0 0 0 0 0 0 0 0 0 0 0 0 0 0 0 0 1 2 2 1 1 0 0 0
0 0 0 0 0 0 0 0 0 0 0 0 0 0 0 0 0 0 0 0 0 0 0 0 0 0 0 0 0 0 0 0 0 0 0 0 1 1 0 0 0 0 0
0 0 0 0 0 0 0 0 0 0 0 0 0 0 0 0 0 0 0 0 0 0 0 0 0 0 0 0 0 0 0 0 0 0 0 0 0 0 0 0 0 0 0
0 0 0 0 0 0 0 0 0 0 0 0 0 0 0 0 0 0 0 0 0 0 0 0 0 0 0 0 0 0 0 0 0 0 0 0 0 0 0 0 0 0 0
0 0 0 0 0 0 0 0 0 0 0 0 0 0 0 0 0 0 0 0 0 0 0 0 0 0 0 0 0 0 0 0 0 0 0 0 0 0 0 0 0 0 0
0 0 0 0 0 0 0 0 0 0 0 0 0 0 0 0 0 0 0 0 0 0 0 0 0 0 0 0 0 0 0 0 0 0 0 0 0 0 0 0 0 0 0
0 0 0 0 0 0 0 0 0 0 0 0 0 0 0 0 0 0 0 0 0 0 0 0 0 0 0 0 0 0 0 0 0 0 0 0 0 0 0 0 0 0 0
Wind_Speed
6 5 5 4 4 4 3 3 3 2 3 3 2 2 2 2 2 2 2 2 2 1 1 2 1 1 0 0 1 1 1 2 2 2 2 1 1 1 1 1 2 3 4
5 5 5 4 4 4 3 3 3 2 2 3 2 2 2 2 2 2 2 2 2 2 2 2 1 1 1 0 1 0 0 1 2 2 2 1 1 2 1 2 2 2 3
5 5 5 4 4 4 4 3 3 2 2 2 3 3 2 2 2 2 2 2 2 3 3 3 2 2 1 1 1 1 1 0 1 1 2 1 1 1 0 1 2 2 3
4 4 4 5 5 4 4 3 3 3 3 2 3 3 2 2 2 2 2 1 1 2 2 2 2 2 3 2 1 1 1 0 0 0 1 1 1 1 0 1 2 2 2
4 4 4 4 4 4 4 4 3 3 3 3 2 2 2 1 2 2 2 2 1 1 1 2 3 3 3 3 2 2 1 1 1 0 1 1 1 1 1 1 1 2 2
4 5 4 4 4 4 4 4 3 3 2 2 3 2 2 2 2 3 2 2 2 2 2 2 2 3 3 4 3 3 4 3 3 2 1 2 2 2 1 1 1 1 3
3 4 4 5 5 4 5 4 4 4 3 3 3 3 3 3 4 3 3 2 2 3 3 2 2 2 2 2 2 2 2 3 5 4 3 4 3 3 2 2 2 2 3
3 3 4 4 5 4 4 4 4 4 4 4 3 3 3 3 3 3 3 2 1 1 2 2 2 2 3 3 2 2 2 2 3 4 4 5 5 4 4 4 3 2 3
3 3 4 5 5 4 5 5 4 4 4 3 3 3 3 2 2 3 3 1 1 1 1 2 3 3 3 4 3 2 1 2 2 2 4 4 5 4 3 1 1 0 2
3 3 3 4 5 6 6 5 3 3 4 4 3 3 3 2 2 3 4 2 1 1 1 1 2 3 3 4 3 3 2 3 2 2 2 2 2 2 2 3 3 2 2
2 2 2 2 4 5 4 4 3 3 4 3 3 2 3 3 3 3 3 2 2 1 1 1 2 3 3 3 3 3 4 3 2 1 1 1 1 1 2 2 3 4 3
1 1 1 1 2 3 4 3 3 3 3 3 2 1 1 1 2 2 3 3 3 2 2 2 2 4 4 3 3 3 3 2 1 0 0 1 1 2 3 3 3 3 4
1 1 1 1 1 2 3 3 3 3 3 2 2 2 1 1 1 1 2 3 3 2 2 4 4 4 3 2 3 2 2 1 1 1 1 2 3 3 2 2 2 2 3
2 1 1 1 1 1 1 2 2 2 2 2 3 3 2 1 1 1 1 1 1 0 1 1 2 1 1 1 1 1 1 2 2 2 2 2 2 1 2 1 1 1 2
1 1 1 1 1 1 1 1 1 2 3 4 3 3 3 3 4 4 3 2 2 2 1 1 1 1 1 1 1 1 1 1 1 1 2 2 2 1 2 2 1 1 1
1 1 1 1 1 1 2 2 4 2 1 2 4 4 3 5 5 5 4 3 3 3 3 1 1 1 1 1 1 1 1 1 2 2 2 2 2 2 2 2 1 1 2
1 1 0 1 1 1 2 2 1 3 3 1 1 3 4 5 5 4 3 2 2 4 2 1 1 2 2 2 2 2 2 2 2 2 2 2 2 2 2 2 1 1 2
1 1 1 1 1 1 1 2 2 2 1 1 1 1 3 4 3 3 3 3 1 1 1 2 2 2 2 2 2 1 1 1 1 1 1 1 1 1 2 2 2 2 2
1 1 1 1 1 1 1 2 2 2 2 1 0 1 0 1 1 1 3 2 2 2 2 1 2 2 1 1 1 1 1 1 1 1 1 1 1 1 1 2 2 2 2
1 1 1 1 1 1 1 1 1 1 1 1 1 2 1 1 1 0 1 1 1 2 2 2 1 1 1 1 1 1 1 0 0 1 1 1 1 1 1 2 1 1 1
1 1 1 1 1 2 1 1 1 1 1 1 2 2 3 2 2 2 2 2 2 2 2 1 1 1 1 1 1 1 1 0 0 0 1 1 1 1 1 1 1 1 1
1 1 1 1 1 1 1 1 1 1 2 2 1 1 3 2 2 2 2 2 2 1 2 2 1 1 1 1 1 1 0 0 0 0 1 1 1 1 1 1 1 1 1
2 2 2 2 2 2 1 1 1 1 1 1 1 1 1 2 2 2 2 2 1 1 1 2 2 1 1 1 1 2 2 1 1 1 1 1 1 1 0 1 1 1 1
2 2 2 2 2 2 2 1 1 1 2 2 1 2 2 2 2 2 2 2 2 1 1 2 2 2 2 1 1 1 1 1 1 1 1 1 1 0 0 0 1 1 1
2 2 2 2 2 2 2 2 2 2 2 2 2 2 2 2 2 2 2 2 2 2 2 2 2 2 3 2 2 1 1 1 1 1 1 1 0 1 0 1 1 1 1
2 2 2 2 2 2 2 2 2 2 2 2 2 2 2 2 2 2 2 2 2 2 2 2 2 3 2 2 2 2 1 0 0 0 0 0 0 1 1 1 1 1 1
Wind_Direction
172 172 168 174 170 163 166 175 178 183 182 181 186 185 188 198 193 180 190 183 182 202 189 166 190 163 137 107 94 91 120 159 200 271 276 293 250 222 228 231 225 219 226
174 172 175 175 167 166 177 186 180 183 192 191 183 182 192 196 190 187 201 191 185 192 195 175 195 159 154 196 108 100 206 175 174 243 285 296 267 235 221 236 248 235 236
172 169 171 171 167 175 185 187 183 186 199 193 177 180 188 189 193 204 198 194 196 201 195 186 196 160 178 209 174 195 236 213 162 190 260 277 291 281 311 280 267 269 256
172 168 171 177 179 181 183 181 183 185 194 197 189 188 192 195 203 209 188 172 178 193 194 186 186 180 193 200 199 209 190 143 127 156 269 285 285 302 98 271 293 291 280
166 170 181 180 177 176 179 181 181 183 196 197 177 185 190 185 200 190 182 173 175 202 216 198 195 193 199 206 205 202 184 177 202 202 263 290 288 296 251 252 268 289 283
162 177 179 173 174 180 186 182 184 190 198 181 169 175 188 211 200 186 177 184 189 195 216 231 222 218 220 221 219 207 193 191 203 205 221 235 257 249 246 245 251 308 293
164 175 178 179 183 191 189 182 192 197 191 189 187 180 196 222 211 204 196 182 193 203 206 220 237 237 226 220 226 233 234 216 199 195 210 227 230 230 215 237 234 230 244
173 183 187 186 190 192 186 187 199 198 190 192 194 193 198 229 218 205 191 162 185 214 217 214 217 239 238 214 207 222 248 247 221 210 214 229 235 231 213 212 217 244 274
176 193 195 191 191 191 193 196 196 190 190 191 184 186 187 223 221 192 161 138 159 225 227 208 206 221 228 196 178 196 261 286 259 223 229 240 250 250 215 162 193 189 286
207 206 198 192 191 193 194 191 187 180 186 178 174 180 183 204 211 176 159 145 155 224 272 238 213 200 193 172 177 186 223 258 285 319 313 312 288 277 226 193 192 195 235
226 204 189 190 188 182 177 174 168 167 164 164 167 180 187 195 201 186 171 162 178 187 203 246 250 215 205 199 193 201 223 236 250 264 283 309 330 316 284 234 203 194 207
137 119 136 161 175 159 155 163 164 162 161 168 165 177 224 202 178 194 183 192 192 184 210 232 242 233 230 226 223 223 225 209 200 243 274 280 277 277 277 270 245 226 223
86 92 120 123 142 143 147 160 158 160 172 184 181 193 218 216 141 156 181 195 190 189 224 235 243 240 233 230 225 218 198 162 154 192 233 249 245 249 267 286 295 276 272
101 90 106 125 122 101 120 144 155 171 180 181 182 192 198 182 178 202 217 206 190 167 283 265 241 219 193 193 234 247 210 191 186 206 229 250 265 279 275 263 271 299 318
115 112 109 127 140 100 88 119 171 196 198 189 193 191 187 205 221 205 193 205 208 208 155 47 39 31 7 344 313 277 256 219 214 232 241 263 278 288 282 274 259 284 273
112 106 113 114 114 111 99 41 22 39 61 146 187 194 207 205 195 194 195 195 185 167 137 140 210 214 219 230 239 265 265 243 235 230 234 244 250 258 272 283 270 262 275
136 155 133 111 131 146 134 123 65 9 19 34 173 183 186 185 186 186 188 187 175 151 143 190 221 227 229 235 235 233 241 243 233 222 232 247 246 245 248 267 282 291 285
152 156 149 176 176 177 169 155 160 173 192 314 312 209 167 169 174 177 163 117 99 139 200 217 224 227 218 218 230 239 254 262 241 232 242 252 257 241 244 260 263 268 278
171 180 183 188 180 178 173 162 166 183 189 196 228 319 147 138 115 133 142 135 174 212 232 235 228 220 216 213 215 218 220 231 260 255 262 259 255 245 252 261 264 282 276
193 193 185 182 171 147 137 151 165 180 190 196 204 211 176 105 99 120 187 190 198 225 234 229 226 211 202 209 202 198 207 238 307 296 290 286 262 230 229 246 258 277 278
187 193 206 187 173 173 166 172 177 172 174 188 221 219 172 164 188 201 207 212 211 218 214 198 187 184 179 171 177 183 176 175 255 281 286 295 294 262 239 222 229 248 284
176 181 186 190 186 182 176 164 157 169 179 188 222 206 181 175 194 204 209 218 214 210 191 169 163 162 168 169 161 149 135 60 299 278 287 291 289 278 243 227 249 282 310
172 179 189 201 192 190 174 171 175 179 186 196 194 195 187 199 211 215 213 210 189 180 167 146 137 130 125 130 144 152 170 208 222 222 230 274 298 289 267 238 253 289 301
183 184 186 191 185 181 180 189 198 198 196 192 193 198 201 208 216 220 210 194 172 161 151 145 145 144 140 132 120 135 185 208 208 209 212 213 271 279 260 258 276 289 287
183 182 182 182 186 191 192 189 195 205 203 198 200 206 210 209 212 209 196 177 164 160 155 152 150 151 158 154 146 153 193 191 188 253 236 180 214 272 305 310 301 308 303
197 190 191 186 186 189 190 191 197 202 206 209 211 205 204 205 204 196 183 167 170 169 164 163 160 158 160 157 152 149 155 183 308 305 140 128 128 331 348 336 328 323 328